,,PA_Meas_PMT16A,,PR_Meas_QMR101_102,,RH_Meas_QMH101,,SR_Meas_QMS101,,TA_Meas_QMH101,,GenWind,,GenWind,
time,status,PA,status,PR,status,RH,status,SR,status,TA,status,DirAvg,status,SpdAvg,
2015-11-15, 07:39:04,VALID,917.117,VALID,0,VALID,100.896,VALID,104.003,VALID,21.0665,VALID,141,VALID,0,
2015-11-15, 07:40:04,VALID,917.1,VALID,0,VALID,100.705,VALID,104.433,VALID,21.0681,VALID,121,VALID,0.572266,
2015-11-15, 07:41:04,VALID,917.129,VALID,0,VALID,100.522,VALID,105.185,VALID,21.0665,VALID,115,VALID,0.980469,
2015-11-15, 07:42:04,VALID,917.172,VALID,0,VALID,100.271,VALID,106.474,VALID,21.0876,VALID,131,VALID,1.11875,
2015-11-15, 07:43:04,VALID,917.211,VALID,0,VALID,99.882,VALID,108.193,VALID,21.1071,VALID,96,VALID,0.572656,
2015-11-15, 07:44:04,VALID,917.217,VALID,0,VALID,99.8363,VALID,110.557,VALID,21.1478,VALID,112,VALID,0,
2015-11-15, 07:45:04,VALID,917.243,VALID,0,VALID,99.7524,VALID,113.028,VALID,21.1657,VALID,73,VALID,0.407031,
2015-11-15, 07:46:04,VALID,917.273,VALID,0,VALID,99.7829,VALID,116.144,VALID,21.2242,VALID,121,VALID,0,
2015-11-15, 07:47:04,VALID,917.296,VALID,0,VALID,99.4627,VALID,119.475,VALID,21.2031,VALID,122,VALID,0.501562,
2015-11-15, 07:48:04,VALID,917.294,VALID,0,VALID,99.5771,VALID,122.913,VALID,21.2616,VALID,136,VALID,0,
2015-11-15, 07:49:04,VALID,917.281,VALID,0,VALID,99.5618,VALID,126.028,VALID,21.2811,VALID,157,VALID,0,
2015-11-15, 07:50:04,VALID,917.288,VALID,0,VALID,99.3407,VALID,129.467,VALID,21.3022,VALID,149,VALID,0.677734,
2015-11-15, 07:51:04,VALID,917.302,VALID,0,VALID,99.4703,VALID,132.582,VALID,21.3217,VALID,161,VALID,0.777734,
2015-11-15, 07:52:04,VALID,917.287,VALID,0,VALID,99.5618,VALID,135.698,VALID,21.3201,VALID,160,VALID,0,
2015-11-15, 07:53:04,VALID,917.297,VALID,0,VALID,99.3407,VALID,138.169,VALID,21.3217,VALID,128,VALID,0.0121094,
2015-11-15, 07:54:04,VALID,917.295,VALID,0,VALID,98.8605,VALID,140.318,VALID,21.3006,VALID,150,VALID,1.37695,
2015-11-15, 07:55:04,VALID,917.326,VALID,0,VALID,98.9824,VALID,142.467,VALID,21.3396,VALID,151,VALID,0.0417969,
2015-11-15, 07:56:04,VALID,917.356,VALID,0,VALID,98.8757,VALID,145.26,VALID,21.3591,VALID,137,VALID,0,
2015-11-15, 07:57:04,VALID,917.333,VALID,0,VALID,99.0663,VALID,148.913,VALID,21.3981,VALID,129,VALID,0.00429688,
2015-11-15, 07:58:04,VALID,917.344,VALID,0,VALID,98.9596,VALID,152.352,VALID,21.4177,VALID,151,VALID,1.12266,
2015-11-15, 07:59:04,VALID,917.343,VALID,0,VALID,98.8833,VALID,155.79,VALID,21.4762,VALID,136,VALID,0,
2015-11-15, 08:00:04,VALID,917.373,VALID,0,VALID,98.6622,VALID,158.583,VALID,21.5347,VALID,115,VALID,0,
2015-11-15, 08:01:04,VALID,917.344,VALID,0,VALID,98.3878,VALID,161.162,VALID,21.5932,VALID,139,VALID,1.02891,
2015-11-15, 08:02:04,VALID,917.372,VALID,0,VALID,97.8542,VALID,164.063,VALID,21.6518,VALID,144,VALID,1.25117,
2015-11-15, 08:03:04,VALID,917.36,VALID,0,VALID,96.6802,VALID,166.749,VALID,21.7103,VALID,118,VALID,1.53672,
2015-11-15, 08:04:04,VALID,917.404,VALID,0,VALID,96.2685,VALID,169.972,VALID,21.7688,VALID,142,VALID,1.37344,
2015-11-15, 08:05:04,VALID,917.419,VALID,0,VALID,95.1326,VALID,172.98,VALID,21.8079,VALID,118,VALID,2.19336,
2015-11-15, 08:06:04,VALID,917.405,VALID,0,VALID,94.3017,VALID,173.195,VALID,21.8257,VALID,126,VALID,1.77969,
2015-11-15, 08:07:04,VALID,917.472,VALID,0,VALID,93.4097,VALID,169.757,VALID,21.9054,VALID,119,VALID,0.893359,
2015-11-15, 08:08:04,VALID,917.46,VALID,0,VALID,95.3308,VALID,164.815,VALID,21.964,VALID,106,VALID,0,
2015-11-15, 08:09:04,VALID,917.449,VALID,0,VALID,92.8151,VALID,159.765,VALID,21.9835,VALID,132,VALID,1.61602,
2015-11-15, 08:10:04,VALID,917.511,VALID,0,VALID,92.8761,VALID,155.79,VALID,22.0437,VALID,117,VALID,0.569141,
2015-11-15, 08:11:04,VALID,917.481,VALID,0,VALID,88.2944,VALID,151.814,VALID,22.0437,VALID,127,VALID,2.31445,
2015-11-15, 08:12:04,VALID,917.496,VALID,0,VALID,89.1101,VALID,148.699,VALID,22.0242,VALID,130,VALID,1.53516,
2015-11-15, 08:13:04,VALID,917.49,VALID,0,VALID,91.9384,VALID,146.872,VALID,22.0437,VALID,140,VALID,1.31016,
2015-11-15, 08:14:04,VALID,917.487,VALID,0,VALID,90.5662,VALID,145.153,VALID,22.0242,VALID,133,VALID,1.96992,
2015-11-15, 08:15:04,VALID,917.477,VALID,0,VALID,91.8622,VALID,144.831,VALID,22.0242,VALID,133,VALID,1.62578,
2015-11-15, 08:16:04,VALID,917.49,VALID,0,VALID,92.4949,VALID,145.368,VALID,22.003,VALID,136,VALID,1.38398,
2015-11-15, 08:17:04,VALID,917.482,VALID,0,VALID,92.1366,VALID,145.26,VALID,22.003,VALID,123,VALID,1.03477,
2015-11-15, 08:18:04,VALID,917.512,VALID,0,VALID,93.0972,VALID,144.079,VALID,22.0225,VALID,135,VALID,1.57773,
2015-11-15, 08:19:04,VALID,917.499,VALID,0,VALID,92.4415,VALID,142.36,VALID,22.0225,VALID,140,VALID,1.36367,
2015-11-15, 08:20:04,VALID,917.51,VALID,0,VALID,89.3464,VALID,140.963,VALID,22.0437,VALID,139,VALID,1.73711,
2015-11-15, 08:21:04,VALID,917.537,VALID,0,VALID,91.6945,VALID,139.459,VALID,22.0615,VALID,149,VALID,1.20938,
2015-11-15, 08:22:04,VALID,917.583,VALID,0,VALID,88.6832,VALID,137.74,VALID,22.0827,VALID,135,VALID,2.01328,
2015-11-15, 08:23:04,VALID,917.586,VALID,0,VALID,91.1151,VALID,135.591,VALID,22.1005,VALID,135,VALID,0.670703,
2015-11-15, 08:24:04,VALID,917.592,VALID,0,VALID,87.7684,VALID,133.334,VALID,22.1005,VALID,148,VALID,1.72344,
2015-11-15, 08:25:04,VALID,917.6,VALID,0,VALID,89.1559,VALID,132.26,VALID,22.1413,VALID,124,VALID,1.34727,
2015-11-15, 08:26:04,VALID,917.625,VALID,0,VALID,88.6908,VALID,132.582,VALID,22.1201,VALID,129,VALID,1.52656,
2015-11-15, 08:27:04,VALID,917.59,VALID,0,VALID,86.7316,VALID,133.979,VALID,22.1201,VALID,139,VALID,2.13828,
2015-11-15, 08:28:04,VALID,917.609,VALID,0,VALID,85.2298,VALID,135.591,VALID,22.1396,VALID,139,VALID,1.53633,
2015-11-15, 08:29:04,VALID,917.621,VALID,0,VALID,86.0912,VALID,136.773,VALID,22.1786,VALID,145,VALID,1.85391,
2015-11-15, 08:30:04,VALID,917.616,VALID,0,VALID,87.5016,VALID,137.847,VALID,22.2176,VALID,149,VALID,0.264844,
2015-11-15, 08:31:04,VALID,917.606,VALID,0,VALID,86.7468,VALID,139.459,VALID,22.2567,VALID,124,VALID,0,
2015-11-15, 08:32:04,VALID,917.636,VALID,0,VALID,85.3518,VALID,142.252,VALID,22.2762,VALID,132,VALID,1.33047,
2015-11-15, 08:33:04,VALID,917.631,VALID,0,VALID,85.6872,VALID,146.013,VALID,22.3152,VALID,131,VALID,0.79375,
2015-11-15, 08:34:04,VALID,917.649,VALID,0,VALID,85.2222,VALID,150.955,VALID,22.3347,VALID,134,VALID,0.952734,
2015-11-15, 08:35:04,VALID,917.684,VALID,0,VALID,84.6885,VALID,154.608,VALID,22.3347,VALID,149,VALID,0.828906,
2015-11-15, 08:36:04,VALID,917.696,VALID,0,VALID,84.3074,VALID,156.972,VALID,22.3737,VALID,139,VALID,0,
2015-11-15, 08:37:04,VALID,917.685,VALID,0,VALID,83.5831,VALID,159.335,VALID,22.3933,VALID,145,VALID,0,
2015-11-15, 08:38:04,VALID,917.656,VALID,0,VALID,82.249,VALID,159.55,VALID,22.4323,VALID,141,VALID,0.771484,
2015-11-15, 08:39:04,VALID,917.689,VALID,0,VALID,83.0266,VALID,160.517,VALID,22.4501,VALID,149,VALID,0.106641,
2015-11-15, 08:40:04,VALID,917.711,VALID,0,VALID,83.2401,VALID,161.806,VALID,22.4891,VALID,124,VALID,0.391406,
2015-11-15, 08:41:04,VALID,917.715,VALID,0,VALID,83.9643,VALID,163.203,VALID,22.5103,VALID,143,VALID,0,
2015-11-15, 08:42:04,VALID,917.727,VALID,0,VALID,83.7432,VALID,164.922,VALID,22.5299,VALID,158,VALID,0,
2015-11-15, 08:43:04,VALID,917.722,VALID,0,VALID,83.1715,VALID,167.286,VALID,22.5672,VALID,148,VALID,0,
2015-11-15, 08:44:04,VALID,917.744,VALID,0,VALID,83.8118,VALID,170.294,VALID,22.6062,VALID,134,VALID,0,
2015-11-15, 08:45:04,VALID,917.708,VALID,0,VALID,83.7813,VALID,173.625,VALID,22.6257,VALID,157,VALID,0,
2015-11-15, 08:46:04,VALID,917.747,VALID,0,VALID,83.2248,VALID,177.278,VALID,22.6647,VALID,137,VALID,0,
2015-11-15, 08:47:04,VALID,917.761,VALID,0,VALID,83.8576,VALID,181.576,VALID,22.7038,VALID,125,VALID,0,
2015-11-15, 08:48:04,VALID,917.807,VALID,0,VALID,83.6899,VALID,185.981,VALID,22.7233,VALID,112,VALID,0,
2015-11-15, 08:49:04,VALID,917.791,VALID,0,VALID,83.1715,VALID,191.03,VALID,22.7623,VALID,152,VALID,0,
2015-11-15, 08:50:04,VALID,917.828,VALID,0,VALID,83.6441,VALID,196.94,VALID,22.7428,VALID,127,VALID,0,
2015-11-15, 08:51:04,VALID,917.835,VALID,0,VALID,84.5361,VALID,202.849,VALID,22.7836,VALID,135,VALID,0,
2015-11-15, 08:52:04,VALID,917.825,VALID,0,VALID,83.8118,VALID,207.576,VALID,22.7623,VALID,148,VALID,0,
2015-11-15, 08:53:04,VALID,917.837,VALID,0,VALID,83.6517,VALID,211.552,VALID,22.8031,VALID,143,VALID,0,
2015-11-15, 08:54:04,VALID,917.859,VALID,0,VALID,82.6836,VALID,216.494,VALID,22.7623,VALID,141,VALID,0.811328,
2015-11-15, 08:55:04,VALID,917.862,VALID,0,VALID,83.2248,VALID,221.114,VALID,22.8014,VALID,140,VALID,0.618359,
2015-11-15, 08:56:04,VALID,917.858,VALID,0,VALID,83.8576,VALID,223.37,VALID,22.8812,VALID,160,VALID,0,
2015-11-15, 08:57:04,VALID,917.886,VALID,0,VALID,83.484,VALID,226.056,VALID,22.8387,VALID,142,VALID,1.26992,
2015-11-15, 08:58:04,VALID,917.904,VALID,0,VALID,82.8284,VALID,229.387,VALID,22.8794,VALID,147,VALID,0,
2015-11-15, 08:59:04,VALID,917.897,VALID,0,VALID,82.8055,VALID,231.321,VALID,22.8794,VALID,159,VALID,0,
2015-11-15, 09:00:04,VALID,917.897,VALID,0,VALID,81.2885,VALID,232.18,VALID,22.8989,VALID,150,VALID,1.17539,
2015-11-15, 09:01:04,VALID,917.912,VALID,0,VALID,83.6899,VALID,233.147,VALID,22.938,VALID,146,VALID,0,
2015-11-15, 09:02:04,VALID,917.93,VALID,0,VALID,82.1271,VALID,234.759,VALID,22.977,VALID,141,VALID,0,
2015-11-15, 09:03:04,VALID,917.93,VALID,0,VALID,82.6759,VALID,236.478,VALID,23.016,VALID,143,VALID,0,
2015-11-15, 09:04:04,VALID,917.933,VALID,0,VALID,81.9365,VALID,237.552,VALID,23.0356,VALID,155,VALID,0.00117188,
2015-11-15, 09:05:04,VALID,917.971,VALID,0,VALID,82.0356,VALID,239.701,VALID,23.0551,VALID,141,VALID,0.79375,
2015-11-15, 09:06:04,VALID,917.961,VALID,0,VALID,82.1957,VALID,242.924,VALID,23.0746,VALID,152,VALID,0,
2015-11-15, 09:07:04,VALID,917.948,VALID,0,VALID,82.188,VALID,246.363,VALID,23.0941,VALID,117,VALID,0.166797,
2015-11-15, 09:08:04,VALID,917.95,VALID,0,VALID,81.4943,VALID,249.478,VALID,23.0728,VALID,176,VALID,0.272266,
2015-11-15, 09:09:04,VALID,917.966,VALID,0,VALID,81.8984,VALID,254.098,VALID,23.1154,VALID,175,VALID,0,
2015-11-15, 09:10:04,VALID,917.95,VALID,0,VALID,81.7688,VALID,260.222,VALID,23.1544,VALID,148,VALID,0,
2015-11-15, 09:11:04,VALID,917.899,VALID,0,VALID,82.8589,VALID,266.239,VALID,23.1739,VALID,156,VALID,0.0121094,
2015-11-15, 09:12:04,VALID,917.922,VALID,0,VALID,82.836,VALID,271.611,VALID,23.1704,VALID,173,VALID,0.402734,
2015-11-15, 09:13:04,VALID,917.928,VALID,0,VALID,83.8042,VALID,276.554,VALID,23.2698,VALID,140,VALID,0,
2015-11-15, 09:14:04,VALID,917.915,VALID,0,VALID,81.5324,VALID,280.636,VALID,23.2893,VALID,182,VALID,0.64375,
2015-11-15, 09:15:04,VALID,917.924,VALID,0,VALID,84.1015,VALID,284.074,VALID,23.3674,VALID,120,VALID,0,
2015-11-15, 09:16:04,VALID,917.916,VALID,0,VALID,81.1436,VALID,287.298,VALID,23.307,VALID,135,VALID,1.85156,
2015-11-15, 09:17:04,VALID,917.927,VALID,0,VALID,79.9925,VALID,290.413,VALID,23.3283,VALID,135,VALID,0,
2015-11-15, 09:18:04,VALID,917.954,VALID,0,VALID,82.3939,VALID,293.744,VALID,23.4064,VALID,123,VALID,0,
2015-11-15, 09:19:04,VALID,917.944,VALID,0,VALID,81.8831,VALID,298.042,VALID,23.4437,VALID,140,VALID,0,
2015-11-15, 09:20:04,VALID,917.962,VALID,0,VALID,82.5921,VALID,305.24,VALID,23.5608,VALID,114,VALID,0,
2015-11-15, 09:21:04,VALID,917.95,VALID,0,VALID,80.4652,VALID,301.91,VALID,23.6388,VALID,124,VALID,0,
2015-11-15, 09:22:04,VALID,917.98,VALID,0,VALID,79.6799,VALID,301.91,VALID,23.6974,VALID,158,VALID,0,
2015-11-15, 09:23:04,VALID,917.972,VALID,0,VALID,77.4082,VALID,303.844,VALID,23.6193,VALID,135,VALID,1.54219,
2015-11-15, 09:24:04,VALID,917.969,VALID,0,VALID,79.7638,VALID,306.1,VALID,23.5821,VALID,114,VALID,0.446484,
2015-11-15, 09:25:04,VALID,917.968,VALID,0,VALID,79.8324,VALID,307.926,VALID,23.5235,VALID,110,VALID,0.659375,
2015-11-15, 09:26:04,VALID,918.005,VALID,0,VALID,81.0598,VALID,310.29,VALID,23.6016,VALID,120,VALID,0,
2015-11-15, 09:27:04,VALID,917.996,VALID,0,VALID,80.61,VALID,311.15,VALID,23.6779,VALID,133,VALID,0,
2015-11-15, 09:28:04,VALID,918.044,VALID,0,VALID,80.8844,VALID,313.406,VALID,23.7773,VALID,146,VALID,0,
2015-11-15, 09:29:04,VALID,918.014,VALID,0,VALID,79.8705,VALID,317.811,VALID,23.8554,VALID,148,VALID,0,
2015-11-15, 09:30:04,VALID,918.028,VALID,0,VALID,81.1818,VALID,322.968,VALID,23.9725,VALID,150,VALID,0,
2015-11-15, 09:31:04,VALID,918.006,VALID,0,VALID,76.1884,VALID,333.712,VALID,24.0097,VALID,115,VALID,0.531641,
2015-11-15, 09:32:04,VALID,917.996,VALID,0,VALID,75.4337,VALID,327.803,VALID,24.0292,VALID,119,VALID,0.597266,
2015-11-15, 09:33:04,VALID,917.979,VALID,0,VALID,76.0969,VALID,330.596,VALID,23.9707,VALID,99,VALID,1.77344,
2015-11-15, 09:34:04,VALID,917.961,VALID,0,VALID,76.9889,VALID,333.282,VALID,23.8926,VALID,128,VALID,0.599219,
2015-11-15, 09:35:04,VALID,917.99,VALID,0,VALID,77.8351,VALID,333.927,VALID,23.8749,VALID,132,VALID,0.522656,
2015-11-15, 09:36:04,VALID,918.031,VALID,0,VALID,76.44,VALID,334.572,VALID,23.8908,VALID,109,VALID,1.26406,
2015-11-15, 09:37:04,VALID,917.998,VALID,0,VALID,77.3091,VALID,333.068,VALID,23.992,VALID,125,VALID,0,
2015-11-15, 09:38:04,VALID,917.976,VALID,0,VALID,78.0028,VALID,334.464,VALID,24.0683,VALID,106,VALID,0,
2015-11-15, 09:39:04,VALID,918.005,VALID,0,VALID,74.9077,VALID,337.795,VALID,24.1073,VALID,113,VALID,0,
2015-11-15, 09:40:04,VALID,918.019,VALID,0,VALID,76.7602,VALID,342.2,VALID,24.1659,VALID,69,VALID,0.137891,
2015-11-15, 09:41:04,VALID,918.017,VALID,0,VALID,74.557,VALID,348.647,VALID,24.2421,VALID,47,VALID,0,
2015-11-15, 09:42:04,VALID,918.015,VALID,0,VALID,74.8772,VALID,357.349,VALID,24.3398,VALID,141,VALID,0,
2015-11-15, 09:43:04,VALID,917.979,VALID,0,VALID,69.5027,VALID,365.192,VALID,24.3416,VALID,49,VALID,2.18008,
2015-11-15, 09:44:04,VALID,917.981,VALID,0,VALID,72.5368,VALID,371.531,VALID,24.3202,VALID,128,VALID,0.145313,
2015-11-15, 09:45:04,VALID,917.977,VALID,0,VALID,74.4274,VALID,370.779,VALID,24.3398,VALID,107,VALID,0.78125,
2015-11-15, 09:46:04,VALID,917.969,VALID,0,VALID,76.5543,VALID,369.383,VALID,24.3611,VALID,103,VALID,0.710156,
2015-11-15, 09:47:04,VALID,917.933,VALID,0,VALID,70.9969,VALID,371.424,VALID,24.3806,VALID,85,VALID,0.117969,
2015-11-15, 09:48:04,VALID,917.965,VALID,0,VALID,76.1656,VALID,380.019,VALID,24.4959,VALID,87,VALID,0,
2015-11-15, 09:49:04,VALID,917.972,VALID,0,VALID,70.8063,VALID,383.028,VALID,24.535,VALID,128,VALID,1.27422,
2015-11-15, 09:50:04,VALID,918.009,VALID,0,VALID,72.1937,VALID,380.019,VALID,24.535,VALID,144,VALID,0.237891,
2015-11-15, 09:51:04,VALID,918.019,VALID,0,VALID,71.1189,VALID,371.531,VALID,24.5935,VALID,43,VALID,1.59297,
2015-11-15, 09:52:04,VALID,918.015,VALID,0,VALID,72.7426,VALID,364.333,VALID,24.6716,VALID,87,VALID,0.405078,
2015-11-15, 09:53:04,VALID,918.034,VALID,0,VALID,73.4974,VALID,356.597,VALID,24.7497,VALID,76,VALID,0,
2015-11-15, 09:54:04,VALID,918.062,VALID,0,VALID,70.2422,VALID,351.225,VALID,24.693,VALID,116,VALID,0,
2015-11-15, 09:55:04,VALID,918.033,VALID,0,VALID,71.2713,VALID,351.547,VALID,24.654,VALID,74,VALID,1.03867,
2015-11-15, 09:56:04,VALID,918.026,VALID,0,VALID,70.6843,VALID,350.258,VALID,24.6735,VALID,72,VALID,0,
2015-11-15, 09:57:04,VALID,918.028,VALID,0,VALID,71.3704,VALID,348.969,VALID,24.693,VALID,36,VALID,0.521484,
2015-11-15, 09:58:04,VALID,918.018,VALID,0,VALID,73.0247,VALID,343.812,VALID,24.7516,VALID,41,VALID,0,
2015-11-15, 09:59:04,VALID,917.985,VALID,0,VALID,75.1669,VALID,325.869,VALID,24.8669,VALID,38,VALID,0,
2015-11-15, 10:00:04,VALID,917.987,VALID,0,VALID,73.2534,VALID,293.959,VALID,25.0055,VALID,93,VALID,0,
2015-11-15, 10:01:04,VALID,917.96,VALID,0,VALID,71.3018,VALID,267.636,VALID,25.064,VALID,171,VALID,0.504297,
2015-11-15, 10:02:04,VALID,917.996,VALID,0,VALID,74.4427,VALID,250.338,VALID,25.0055,VALID,162,VALID,0.0617188,
2015-11-15, 10:03:04,VALID,917.963,VALID,0,VALID,72.4758,VALID,230.998,VALID,24.9078,VALID,133,VALID,0.1125,
2015-11-15, 10:04:04,VALID,918.006,VALID,0,VALID,71.3704,VALID,208.328,VALID,24.9078,VALID,120,VALID,0.00195313,
2015-11-15, 10:05:04,VALID,917.985,VALID,0,VALID,69.5865,VALID,192.32,VALID,24.7693,VALID,134,VALID,0.240234,
2015-11-15, 10:06:04,VALID,917.976,VALID,0,VALID,70.3336,VALID,183.402,VALID,24.7107,VALID,161,VALID,0,
2015-11-15, 10:07:04,VALID,917.973,VALID,0,VALID,71.3323,VALID,186.625,VALID,24.6716,VALID,135,VALID,0.403516,
2015-11-15, 10:08:04,VALID,917.929,VALID,0,VALID,70.9588,VALID,202.849,VALID,24.5935,VALID,114,VALID,0,
2015-11-15, 10:09:04,VALID,917.949,VALID,0,VALID,71.5381,VALID,209.08,VALID,24.6149,VALID,88,VALID,1.56289,
2015-11-15, 10:10:04,VALID,917.943,VALID,0,VALID,73.7337,VALID,204.998,VALID,24.4764,VALID,108,VALID,1.37539,
2015-11-15, 10:11:04,VALID,917.966,VALID,0,VALID,72.3996,VALID,215.097,VALID,24.3983,VALID,112,VALID,0.462109,
2015-11-15, 10:12:04,VALID,917.92,VALID,0,VALID,73.2,VALID,237.982,VALID,24.3416,VALID,85,VALID,0.428516,
2015-11-15, 10:13:04,VALID,917.918,VALID,0,VALID,73.7032,VALID,227.238,VALID,24.283,VALID,70,VALID,1.28828,
2015-11-15, 10:14:04,VALID,917.931,VALID,0,VALID,74.2902,VALID,228.312,VALID,24.2421,VALID,81,VALID,0.654688,
2015-11-15, 10:15:04,VALID,917.915,VALID,0,VALID,74.1225,VALID,225.949,VALID,24.2635,VALID,63,VALID,1.36094,
2015-11-15, 10:16:04,VALID,917.914,VALID,0,VALID,73.6574,VALID,219.717,VALID,24.2226,VALID,92,VALID,1.04258,
2015-11-15, 10:17:04,VALID,917.913,VALID,0,VALID,74.6256,VALID,216.924,VALID,24.1659,VALID,122,VALID,1.04805,
2015-11-15, 10:18:04,VALID,917.924,VALID,0,VALID,73.7108,VALID,227.56,VALID,24.1854,VALID,101,VALID,0.473047,
2015-11-15, 10:19:04,VALID,917.896,VALID,0,VALID,73.6422,VALID,253.669,VALID,24.1464,VALID,109,VALID,2.18281,
2015-11-15, 10:20:04,VALID,917.926,VALID,0,VALID,72.4453,VALID,274.834,VALID,24.0878,VALID,115,VALID,1.93203,
2015-11-15, 10:21:04,VALID,917.923,VALID,0,VALID,74.1987,VALID,292.777,VALID,24.0665,VALID,112,VALID,0.175391,
2015-11-15, 10:22:04,VALID,917.929,VALID,0,VALID,75.205,VALID,292.777,VALID,24.1269,VALID,87,VALID,0.152734,
2015-11-15, 10:23:04,VALID,917.969,VALID,0,VALID,75.1898,VALID,294.174,VALID,24.1836,VALID,60,VALID,0.632813,
2015-11-15, 10:24:04,VALID,917.987,VALID,0,VALID,73.6651,VALID,298.149,VALID,24.283,VALID,105,VALID,0.05,
2015-11-15, 10:25:04,VALID,918.026,VALID,0,VALID,74.1606,VALID,297.719,VALID,24.3202,VALID,102,VALID,0.368359,
2015-11-15, 10:26:04,VALID,918.035,VALID,0,VALID,76.2799,VALID,293.099,VALID,24.4569,VALID,52,VALID,0,
2015-11-15, 10:27:04,VALID,918.015,VALID,0,VALID,72.3767,VALID,286.546,VALID,24.5155,VALID,119,VALID,1.42813,
2015-11-15, 10:28:04,VALID,917.994,VALID,0,VALID,71.9803,VALID,293.099,VALID,24.5155,VALID,110,VALID,0.385156,
2015-11-15, 10:29:04,VALID,917.992,VALID,0,VALID,73.3068,VALID,305.348,VALID,24.5173,VALID,94,VALID,0.424609,
2015-11-15, 10:30:04,VALID,917.982,VALID,0,VALID,71.5991,VALID,323.398,VALID,24.5155,VALID,73,VALID,1.84531,
2015-11-15, 10:31:04,VALID,917.988,VALID,0,VALID,69.5332,VALID,340.803,VALID,24.4959,VALID,74,VALID,1.9625,
2015-11-15, 10:32:04,VALID,917.991,VALID,0,VALID,74.031,VALID,371.102,VALID,24.4764,VALID,87,VALID,0.0640625,
2015-11-15, 10:33:04,VALID,917.99,VALID,0,VALID,71.4085,VALID,529.47,VALID,24.4783,VALID,99,VALID,0.780078,
2015-11-15, 10:34:04,VALID,917.965,VALID,0,VALID,70.9816,VALID,385.069,VALID,24.5368,VALID,103,VALID,0.449219,
2015-11-15, 10:35:04,VALID,917.961,VALID,0,VALID,73.4669,VALID,328.125,VALID,24.654,VALID,54,VALID,0.395312,
2015-11-15, 10:36:04,VALID,917.96,VALID,0,VALID,72.1937,VALID,301.265,VALID,24.7302,VALID,99,VALID,0.626953,
2015-11-15, 10:37:04,VALID,917.978,VALID,0,VALID,74.1758,VALID,269.14,VALID,24.8083,VALID,49,VALID,0.857031,
2015-11-15, 10:38:04,VALID,917.951,VALID,0,VALID,73.3906,VALID,255.28,VALID,24.9255,VALID,72,VALID,0.303906,
2015-11-15, 10:39:04,VALID,917.968,VALID,0,VALID,69.5789,VALID,262.801,VALID,24.9664,VALID,116,VALID,1.54727,
2015-11-15, 10:40:04,VALID,917.953,VALID,0,VALID,69.274,VALID,269.033,VALID,24.7888,VALID,111,VALID,1.57305,
2015-11-15, 10:41:04,VALID,917.926,VALID,0,VALID,70.6691,VALID,268.173,VALID,24.7126,VALID,61,VALID,1.39531,
2015-11-15, 10:42:04,VALID,917.916,VALID,0,VALID,70.4251,VALID,277.091,VALID,24.6521,VALID,83,VALID,0.248828,
2015-11-15, 10:43:04,VALID,917.875,VALID,0,VALID,71.9955,VALID,283.43,VALID,24.6307,VALID,48,VALID,1.51094,
2015-11-15, 10:44:04,VALID,917.882,VALID,0,VALID,68.7251,VALID,296.215,VALID,24.6716,VALID,36,VALID,0.292969,
2015-11-15, 10:45:04,VALID,917.847,VALID,0,VALID,70.1583,VALID,322.216,VALID,24.7497,VALID,88,VALID,0.801562,
2015-11-15, 10:46:04,VALID,917.832,VALID,0,VALID,69.152,VALID,357.564,VALID,24.6912,VALID,92,VALID,1.10469,
2015-11-15, 10:47:04,VALID,917.855,VALID,0,VALID,71.2637,VALID,426.326,VALID,24.7497,VALID,51,VALID,0.827734,
2015-11-15, 10:48:04,VALID,917.849,VALID,0,VALID,69.8915,VALID,393.772,VALID,24.8083,VALID,56,VALID,1.10195,
2015-11-15, 10:49:04,VALID,917.85,VALID,0,VALID,69.9601,VALID,444.377,VALID,24.9059,VALID,78,VALID,2.07891,
2015-11-15, 10:50:04,VALID,917.828,VALID,0,VALID,70.9435,VALID,631.861,VALID,24.9645,VALID,58,VALID,0.820313,
2015-11-15, 10:51:04,VALID,917.803,VALID,0,VALID,70.4251,VALID,399.574,VALID,24.9645,VALID,54,VALID,2.14453,
2015-11-15, 10:52:04,VALID,917.794,VALID,0,VALID,67.0784,VALID,361.647,VALID,24.945,VALID,88,VALID,1.19727,
2015-11-15, 10:53:04,VALID,917.797,VALID,0,VALID,68.8547,VALID,392.697,VALID,24.9236,VALID,62,VALID,1.79805,
2015-11-15, 10:54:04,VALID,917.818,VALID,0,VALID,69.3578,VALID,515.395,VALID,25.0231,VALID,100,VALID,1.3375,
2015-11-15, 10:55:04,VALID,917.763,VALID,0,VALID,67.2462,VALID,471.667,VALID,25.0426,VALID,70,VALID,2.68398,
2015-11-15, 10:56:04,VALID,917.748,VALID,0,VALID,68.1152,VALID,474.138,VALID,25.0036,VALID,44,VALID,2.59766,
2015-11-15, 10:57:04,VALID,917.731,VALID,0,VALID,67.1242,VALID,477.898,VALID,24.984,VALID,96,VALID,1.28437,
2015-11-15, 10:58:04,VALID,917.703,VALID,0,VALID,69.4646,VALID,457.162,VALID,24.984,VALID,70,VALID,3.26016,
2015-11-15, 10:59:04,VALID,917.684,VALID,0,VALID,69.1444,VALID,468.658,VALID,25.0036,VALID,80,VALID,0.4375,
2015-11-15, 11:00:04,VALID,917.666,VALID,0,VALID,70.1812,VALID,492.403,VALID,25.0817,VALID,52,VALID,1.12188,
2015-11-15, 11:01:04,VALID,917.634,VALID,0,VALID,68.2829,VALID,536.024,VALID,25.1207,VALID,100,VALID,2.37031,
2015-11-15, 11:02:04,VALID,917.616,VALID,0,VALID,70.6386,VALID,713.087,VALID,25.2379,VALID,122,VALID,1.43008,
2015-11-15, 11:03:04,VALID,917.642,VALID,0,VALID,66.8116,VALID,496.7,VALID,25.355,VALID,91,VALID,1.94297,
2015-11-15, 11:04:04,VALID,917.619,VALID,0,VALID,65.4851,VALID,500.139,VALID,25.4917,VALID,76,VALID,1.12383,
2015-11-15, 11:05:04,VALID,917.559,VALID,0,VALID,64.7685,VALID,551.388,VALID,25.5308,VALID,51,VALID,3.53828,
2015-11-15, 11:06:04,VALID,917.569,VALID,0,VALID,64.273,VALID,567.182,VALID,25.6284,VALID,62,VALID,3.49766,
2015-11-15, 11:07:04,VALID,917.599,VALID,0,VALID,67.1089,VALID,668.714,VALID,25.6675,VALID,49,VALID,2.53203,
2015-11-15, 11:08:04,VALID,917.623,VALID,0,VALID,68.2982,VALID,517.437,VALID,25.8628,VALID,79,VALID,1.79961,
2015-11-15, 11:09:04,VALID,917.594,VALID,0,VALID,62.9389,VALID,583.083,VALID,25.9429,VALID,36,VALID,0.818359,
2015-11-15, 11:10:04,VALID,917.594,VALID,0,VALID,64.9058,VALID,586.521,VALID,26.0972,VALID,21,VALID,0,
2015-11-15, 11:11:04,VALID,917.571,VALID,0,VALID,64.8905,VALID,514.751,VALID,26.3336,VALID,26,VALID,0,
2015-11-15, 11:12:04,VALID,917.565,VALID,0,VALID,64.2806,VALID,478.65,VALID,26.605,VALID,38,VALID,0,
2015-11-15, 11:13:04,VALID,917.581,VALID,0,VALID,62.2909,VALID,478.328,VALID,26.5855,VALID,130,VALID,0.208594,
2015-11-15, 11:14:04,VALID,917.551,VALID,0,VALID,62.4434,VALID,455.55,VALID,26.4292,VALID,82,VALID,0.152734,
2015-11-15, 11:15:04,VALID,917.557,VALID,0,VALID,64.86,VALID,468.229,VALID,26.2534,VALID,25,VALID,0.498828,
2015-11-15, 11:16:04,VALID,917.589,VALID,0,VALID,67.4367,VALID,434.814,VALID,26.3316,VALID,68,VALID,0.663672,